Station CLBP4 - 9752235 - Culebra, PR Image indicating link to RSS feed of recent meteorological observations for station CLBP4


Conditions at CLBP4 as of
(3:00 am AST)
0700 GMT on 04/14/2024:
     

Click on the graph icon in the table below to see a time series plot of the last five days of that observation.

5-day plot - Atmospheric Pressure Atmospheric Pressure (PRES):29.94 in
5-day plot - Pressure Tendency Pressure Tendency (PTDY):-0.06 in ( Falling )
5-day plot - Air Temperature Air Temperature (ATMP): 78.4 °F
5-day plot - Water Temperature Water Temperature (WTMP): 82.4 °F
NOS Water Level Observation Network Water Level
Previous observations
TIME
(AST)
5-day plot - Wind Direction
WDIR
 
5-day plot - Wind Speed
WSPD
kts
5-day plot - Wind Gust
GST
kts
5-day plot - Wave Height
WVHT
ft
5-day plot - Dominant Wave Period
DPD
sec
5-day plot - Average Wave Period
APD
sec
5-day plot - Mean Wave Direction
MWD
 
5-day plot - Atmospheric Pressure
PRES
in
5-day plot - Pressure Tendency
PTDY
in
5-day plot - Air Temperature
ATMP
°F
5-day plot - Water Temperature
WTMP
°F
5-day plot - Dew Point
DEWP
°F
5-day plot - Salinity
SAL
psu
5-day plot - Visibility
VIS
nmi
5-day plot - Tide (above MLLW)
TIDE
ft
2024-04-14 02:54 am-------29.94- 78.3 82.4----
2024-04-14 02:48 am-------29.94- 78.1 82.4----
2024-04-14 02:42 am-------29.94- 78.3 82.4----
2024-04-14 02:36 am-------29.94- 78.1 82.4----
2024-04-14 02:30 am-------29.94- 78.3 82.4----
2024-04-14 02:24 am-------29.94- 78.3 82.6----
2024-04-14 02:18 am-------29.95- 78.3 82.6----
2024-04-14 02:12 am-------29.95- 78.3 82.6----
2024-04-14 02:06 am-------29.95- 78.4 82.6----
2024-04-14 02:00 am-------29.95-0.07 78.3 82.6----
2024-04-14 01:54 am-------29.95- 78.4 82.6----
2024-04-14 01:48 am-------29.96- 78.6 82.6----
2024-04-14 01:42 am-------29.96- 78.4 82.6----
2024-04-14 01:36 am-------29.96- 78.3 82.6----
2024-04-14 01:30 am-------29.96- 78.4 82.6----
2024-04-14 01:24 am-------29.96- 78.6 82.6----
2024-04-14 01:18 am-------29.97- 78.4 82.6----
2024-04-14 01:12 am-------29.97- 78.6 82.6----
2024-04-14 01:06 am-------29.98- 78.6 82.6----
2024-04-14 01:00 am-------29.98-0.06 78.6 82.6----
2024-04-14 12:54 am-------29.98- 79.0 82.6----
2024-04-14 12:48 am-------29.98- 78.8 82.6----
2024-04-14 12:42 am-------29.99- 78.6 82.6----
2024-04-14 12:36 am-------29.99- 79.0 82.6----
2024-04-14 12:30 am-------29.99- 79.0 82.6----
2024-04-14 12:24 am-------30.00- 79.0 82.6----
2024-04-14 12:18 am-------30.00- 78.8 82.6----
2024-04-14 12:12 am-------30.00- 78.8 82.6----
2024-04-14 12:06 am-------30.00- 79.0 82.6----
2024-04-14 12:00 am-------30.00-0.03 79.2 82.8----
2024-04-13 11:54 pm-------30.01- 79.2 82.8----
2024-04-13 11:48 pm-------30.01- 79.5 82.8----
2024-04-13 11:42 pm-------30.01- 79.2 82.8----
2024-04-13 11:36 pm-------30.01- 79.5 82.8----
2024-04-13 11:30 pm-------30.01- 79.3 82.8----
2024-04-13 11:24 pm-------30.01- 79.3 82.8----
2024-04-13 11:18 pm-------30.02- 79.3 82.8----
2024-04-13 11:12 pm-------30.02- 79.0 82.8----
2024-04-13 11:06 pm-------30.02- 79.3 82.8----
2024-04-13 11:00 pm-------30.03+0.00 79.2 82.8----
2024-04-13 10:54 pm-------30.03- 79.3 82.8----
2024-04-13 10:48 pm-------30.03- 79.2 82.8----
2024-04-13 10:42 pm-------30.03- 79.2 82.8----
2024-04-13 10:36 pm-------30.03- 79.3 82.8----
2024-04-13 10:30 pm-------30.03- 79.5 82.8----
2024-04-13 10:24 pm-------30.03- 79.3 82.8----
2024-04-13 10:18 pm-------30.03- 79.5 82.9----
2024-04-13 10:12 pm-------30.03- 79.3 82.9----
2024-04-13 10:06 pm-------30.03- 79.3 82.9----
2024-04-13 10:00 pm-------30.03+0.02 79.5 82.9----
2024-04-13 09:54 pm-------30.03- 79.5 82.9----
2024-04-13 09:48 pm-------30.03- 79.7 82.9----
2024-04-13 09:42 pm-------30.03- 79.9 82.9----
2024-04-13 09:36 pm-------30.03- 79.7 82.9----
2024-04-13 09:30 pm-------30.03- 79.7 82.9----
2024-04-13 09:24 pm-------30.03- 79.7 82.9----
2024-04-13 09:18 pm-------30.03- 79.7 82.9----
2024-04-13 09:12 pm-------30.03- 79.7 82.9----
2024-04-13 09:06 pm-------30.03- 79.9 82.9----
2024-04-13 09:00 pm-------30.03+0.03 79.7 82.9----
2024-04-13 08:54 pm-------30.03- 79.9 82.9----
2024-04-13 08:48 pm-------30.03- 80.1 82.9----
2024-04-13 08:42 pm-------30.03- 80.2 82.9----
2024-04-13 08:36 pm-------30.03- 80.2 82.9----
2024-04-13 08:30 pm-------30.02- 80.1 83.1----
2024-04-13 08:24 pm-------30.02- 79.9 83.1----
2024-04-13 08:18 pm-------30.02- 80.4 83.1----
2024-04-13 08:12 pm-------30.02- 80.4 83.1----
2024-04-13 08:06 pm-------30.02- 80.4 83.1----
2024-04-13 08:00 pm-------30.02+0.02 80.4 83.1----
2024-04-13 07:54 pm-------30.02- 80.6 83.1----
2024-04-13 07:48 pm-------30.02- 80.2 83.3----
2024-04-13 07:42 pm-------30.02- 80.4 83.3----
2024-04-13 07:36 pm-------30.02- 80.2 83.3----
2024-04-13 07:30 pm-------30.01- 80.4 83.3----
2024-04-13 07:24 pm-------30.01- 80.8 83.3----
2024-04-13 07:18 pm-------30.01- 80.6 83.3----
2024-04-13 07:00 pm-------30.01+0.01 80.8 83.1----
2024-04-13 06:54 pm-------30.01- 81.1 83.1----
2024-04-13 06:48 pm-------30.01- 81.1-----
2024-04-13 06:42 pm-------30.01- 81.0-----
2024-04-13 06:36 pm-------30.01- 81.0-----
2024-04-13 06:30 pm-------30.01- 81.5 83.1----
2024-04-13 06:24 pm-------30.01- 81.7 83.1----
2024-04-13 06:18 pm-------30.01- 81.7 83.3----
2024-04-13 06:12 pm-------30.01- 82.0 83.3----
2024-04-13 06:06 pm-------30.00- 82.0 83.3----
2024-04-13 06:00 pm-------30.00+0.00 82.8 83.3----
2024-04-13 05:54 pm-------30.00- 83.7 83.3----
2024-04-13 05:48 pm-------30.00- 83.8 83.3----
2024-04-13 05:42 pm-------30.00- 83.3 83.3----
2024-04-13 05:36 pm-------30.00- 82.8 83.3----
2024-04-13 05:30 pm-------30.00- 83.1 83.3----
2024-04-13 05:24 pm-------30.00- 84.0 83.3----
2024-04-13 05:18 pm-------30.00- 83.8 83.3----
2024-04-13 05:12 pm-------30.00- 82.9 83.3----
2024-04-13 05:06 pm-------30.00- 83.1 83.3----
2024-04-13 05:00 pm-------30.00-0.02 83.7 83.3----
2024-04-13 04:54 pm-------29.99- 83.3 83.5----
2024-04-13 04:48 pm--------- 84.2 83.5----
2024-04-13 04:42 pm--------- 84.9 83.5----
2024-04-13 04:36 pm--------- 83.3 83.3----
2024-04-13 04:30 pm-------30.00-- 83.5----
2024-04-13 04:24 pm-------30.00-- 83.5----
2024-04-13 04:18 pm-------30.00- 85.3 83.5----
2024-04-13 04:12 pm-------30.00- 85.6 83.5----
2024-04-13 04:06 pm-------30.00- 85.6 83.5----
2024-04-13 04:00 pm-------30.00-0.04 84.7 83.5----
2024-04-13 03:54 pm-------30.00- 86.5 83.5----
2024-04-13 03:48 pm-------30.00- 86.7 83.5----
2024-04-13 03:42 pm-------30.00- 84.9 83.5----
2024-04-13 03:36 pm-------30.00- 85.3 83.5----
2024-04-13 03:30 pm-------30.00- 86.2 83.5----
2024-04-13 03:24 pm-------30.00- 86.2 83.5----
2024-04-13 03:18 pm-------30.00- 85.1 83.5----
2024-04-13 03:12 pm-------30.00- 85.8 83.5----
2024-04-13 03:06 pm-------30.00- 84.6 83.5----
2024-04-13 03:00 pm-------30.01-0.06 86.9 83.5----
2024-04-13 02:54 pm-------30.01- 86.5 83.1----
2024-04-13 02:48 pm-------30.01-- 83.1----
2024-04-13 02:42 pm-------30.01-- 83.1----
2024-04-13 02:36 pm-------30.01-- 83.1----
2024-04-13 02:30 pm-------30.01- 84.9 83.1----
2024-04-13 02:24 pm-------30.01- 83.8 82.9----
2024-04-13 02:18 pm-------30.01-- 83.1----
2024-04-13 02:12 pm-------30.01-- 83.1----
2024-04-13 02:06 pm-------30.01-- 83.1----
2024-04-13 02:00 pm-------30.01-0.06 85.5 83.1----
2024-04-13 01:54 pm-------30.02- 84.9 83.1----
2024-04-13 01:48 pm-------30.02-- 83.1----
2024-04-13 01:42 pm-------30.02-- 83.1----
2024-04-13 01:36 pm-------30.03-- 82.9----
2024-04-13 01:30 pm-------30.03- 84.6 82.9----
2024-04-13 01:24 pm-------30.03- 84.2 82.9----
2024-04-13 01:18 pm-------30.03- 84.4 82.9----
2024-04-13 01:12 pm-------30.03- 84.7 82.9----
2024-04-13 01:06 pm-------30.04- 84.4 82.9----
2024-04-13 01:00 pm-------30.04-0.04 84.6 82.9----
2024-04-13 12:54 pm-------30.04- 85.6 82.9----
2024-04-13 12:48 pm-------30.04- 85.8 82.8----
2024-04-13 12:42 pm-------30.05- 85.8 82.8----
2024-04-13 12:36 pm-------30.05- 84.7 82.8----
2024-04-13 12:30 pm-------30.05-- 82.8----
2024-04-13 12:24 pm-------30.05-- 82.8----
2024-04-13 12:18 pm-------30.06-- 82.8----
2024-04-13 12:12 pm-------30.06-- 82.8----
2024-04-13 12:06 pm-------30.06-- 82.8----
2024-04-13 12:00 pm-------30.06-0.01 86.0 82.8----
2024-04-13 11:54 am-------30.06- 85.1 82.6----
2024-04-13 11:48 am-------30.06-- 82.6----
2024-04-13 11:42 am-------30.06-- 82.6----
2024-04-13 11:36 am-------30.07-- 82.6----
2024-04-13 11:30 am-------30.07- 85.1 82.6----
2024-04-13 11:24 am-------30.07- 85.8 82.6----
2024-04-13 11:18 am-------30.07- 86.2 82.6----
2024-04-13 11:12 am-------30.07- 86.0 82.6----
2024-04-13 11:06 am-------30.07- 85.6 82.6----
2024-04-13 11:00 am-------30.07- 86.0 82.4----
2024-04-13 10:54 am-------30.07- 86.0 82.4----
2024-04-13 10:48 am-------30.08- 85.3 82.4----
2024-04-13 10:42 am-------30.08- 85.8 82.4----
2024-04-13 10:36 am-------30.08- 85.6 82.4----
2024-04-13 10:30 am-------30.08- 85.6 82.2----
2024-04-13 10:24 am-------30.08- 86.0 82.4----
2024-04-13 10:18 am-------30.08- 85.1 82.4----
2024-04-13 10:12 am-------30.08- 84.7 82.4----
2024-04-13 10:06 am-------30.08- 85.3 82.2----
2024-04-13 10:00 am-------30.08+0.02 84.7 82.2----
2024-04-13 09:54 am-------30.08- 84.6 82.2----
2024-04-13 09:48 am-------30.08- 84.9 82.2----
2024-04-13 09:42 am-------30.08- 84.6 82.2----
2024-04-13 09:36 am-------30.08- 84.4 82.2----
2024-04-13 09:30 am-------30.08- 83.7 82.0----
2024-04-13 09:24 am-------30.08- 84.0 82.0----
2024-04-13 09:18 am-------30.08- 83.3 82.0----
2024-04-13 09:12 am-------30.08- 82.9 82.0----
2024-04-13 09:06 am-------30.08- 82.8 82.0----
2024-04-13 09:00 am-------30.07+0.03- 82.0----
2024-04-13 08:54 am-------30.07-- 82.0----
2024-04-13 08:48 am-------30.07- 81.7 82.0----
2024-04-13 08:42 am-------30.07- 81.7 82.0----
2024-04-13 08:36 am-------30.07- 81.3 82.0----
2024-04-13 08:30 am-------30.07- 81.5 82.0----
2024-04-13 08:24 am-------30.07- 81.0 82.0----
2024-04-13 08:18 am-------30.07- 80.8 82.0----
2024-04-13 08:12 am-------30.07- 80.6 82.0----
2024-04-13 08:06 am-------30.07- 80.6 82.0----
2024-04-13 08:00 am---------- 82.0----
2024-04-13 07:54 am---------- 82.0----
2024-04-13 07:48 am-------30.07-- 82.0----
2024-04-13 07:42 am-------30.06-- 82.0----
2024-04-13 07:36 am-------30.06-- 82.2----
2024-04-13 07:30 am-------30.06-------
2024-04-13 07:24 am-------30.06-------
2024-04-13 07:18 am-------30.06- 79.5 82.2----
2024-04-13 07:12 am-------30.06- 79.5 82.2----
2024-04-13 07:06 am-------30.06- 79.3 82.2----
2024-04-13 07:00 am-------30.06+0.03 79.3 82.2----
2024-04-13 06:54 am-------30.06- 79.0 82.2----
2024-04-13 06:48 am-------30.06-- 82.2----
2024-04-13 06:42 am-------30.06-- 82.2----
2024-04-13 06:36 am-------30.05-- 82.2----
2024-04-13 06:30 am-------30.05- 78.4-----
2024-04-13 06:24 am-------30.05- 78.4-----
2024-04-13 06:18 am-------30.05- 78.4 82.2----
2024-04-13 06:12 am-------30.05- 78.4 82.2----
2024-04-13 06:06 am-------30.04- 78.3 82.2----
2024-04-13 06:00 am-------30.04+0.01- 82.2----
2024-04-13 05:54 am-------30.04-- 82.2----
2024-04-13 05:48 am-------30.04- 78.6 82.2----
2024-04-13 05:42 am-------30.04- 78.8 82.2----
2024-04-13 05:36 am-------30.04- 78.4 82.2----
2024-04-13 05:30 am-------30.04- 78.8 82.4----
2024-04-13 05:24 am-------30.04- 79.0 82.4----
2024-04-13 05:18 am-------30.04- 78.6 82.4----
2024-04-13 05:12 am-------30.03- 78.4 82.4----
2024-04-13 05:06 am-------30.03- 78.6 82.4----
2024-04-13 05:00 am-------30.03-0.01 78.4 82.4----
2024-04-13 04:54 am-------30.03- 78.6 82.4----
2024-04-13 04:48 am-------30.03- 78.6 82.4----
2024-04-13 04:42 am-------30.03- 78.6 82.4----
2024-04-13 04:36 am-------30.03- 78.6 82.4----
2024-04-13 04:30 am-------30.03-- 82.4----
2024-04-13 04:24 am-------30.03-- 82.4----
2024-04-13 04:18 am-------30.03- 78.3 82.4----
2024-04-13 04:12 am-------30.03- 78.4 82.4----
2024-04-13 04:06 am-------30.03- 78.6 82.4----
2024-04-13 04:00 am-------30.03-0.03- 82.4----
2024-04-13 03:54 am-------30.03-- 82.6----
2024-04-13 03:48 am-------30.03- 78.6 82.6----
2024-04-13 03:42 am-------30.03- 78.8 82.6----
2024-04-13 03:36 am-------30.03- 78.6 82.6----
2024-04-13 03:30 am-------30.03- 78.4 82.6----
2024-04-13 03:24 am-------30.03- 78.4 82.6----
2024-04-13 03:18 am-------30.03- 78.6 82.6----
2024-04-13 03:12 am-------30.03- 78.6 82.6----
2024-04-13 03:06 am-------30.03- 78.6 82.6----
2024-04-13 03:00 am-------30.03-0.04 78.4 82.6----
2024-04-13 02:54 am-------30.03- 78.4 82.6----